Time,TemperatureF,DewpointF,PressureIn,WindDirection,WindDirectionDegrees,WindSpeedMPH,WindSpeedGustMPH,Humidity,HourlyPrecipIn,Conditions,Clouds,dailyrainin,SoftwareType,DateUTC
2013-10-07 00:00:00,67.1,61.1,29.90,ENE,68,0.0,0.0,81,0.00,,CLR,0.00,VWS V12.08,2013-10-07 04:00:00,
2013-10-07 00:01:00,67.1,61.1,29.90,ENE,68,0.0,0.0,81,0.00,,CLR,0.00,VWS V12.08,2013-10-07 04:01:00,
2013-10-07 00:02:00,67.3,61.3,29.91,ENE,68,0.0,0.0,81,0.00,,CLR,0.00,VWS V12.08,2013-10-07 04:02:00,
2013-10-07 00:07:00,67.3,61.3,29.91,NE,45,1.3,1.3,81,0.00,,CLR,0.00,VWS V12.08,2013-10-07 04:07:00,
2013-10-07 00:12:00,67.3,61.3,29.90,NE,45,0.0,1.3,81,0.00,,CLR,0.00,VWS V12.08,2013-10-07 04:12:00,
2013-10-07 00:17:00,67.3,61.3,29.90,NE,45,0.0,1.3,81,0.00,,CLR,0.00,VWS V12.08,2013-10-07 04:17:00,
2013-10-07 00:22:00,67.3,61.3,29.89,NE,45,0.0,0.0,81,0.00,,CLR,0.00,VWS V12.08,2013-10-07 04:22:00,
2013-10-07 00:27:00,67.3,61.3,29.89,NE,45,0.0,0.0,81,0.00,,CLR,0.00,VWS V12.08,2013-10-07 04:27:00,
2013-10-07 00:32:00,67.3,61.3,29.89,WSW,248,0.0,0.0,81,0.00,,CLR,0.00,VWS V12.08,2013-10-07 04:32:00,
2013-10-07 00:37:00,67.3,61.3,29.89,ENE,68,0.0,0.0,81,0.00,,CLR,0.00,VWS V12.08,2013-10-07 04:37:00,
2013-10-07 00:42:00,67.3,61.3,29.88,ENE,68,0.0,0.0,81,0.00,,CLR,0.00,VWS V12.08,2013-10-07 04:42:00,
2013-10-07 00:47:00,67.3,61.3,29.89,SW,225,0.0,0.0,81,0.00,,CLR,0.00,VWS V12.08,2013-10-07 04:47:00,
2013-10-07 00:52:00,67.3,61.3,29.88,SW,225,0.0,0.0,81,0.00,,CLR,0.00,VWS V12.08,2013-10-07 04:52:00,
2013-10-07 00:57:00,67.3,61.6,29.88,ENE,68,0.0,0.0,82,0.00,,CLR,0.00,VWS V12.08,2013-10-07 04:57:00,
2013-10-07 01:02:00,67.3,61.6,29.88,East,90,0.0,0.0,82,0.02,,CLR,0.02,VWS V12.08,2013-10-07 05:02:00,
2013-10-07 01:07:00,66.9,61.9,29.87,East,90,0.0,0.0,84,0.04,,CLR,0.04,VWS V12.08,2013-10-07 05:07:00,
2013-10-07 01:12:00,66.9,61.9,29.87,SSW,202,0.0,0.0,84,0.09,,CLR,0.09,VWS V12.08,2013-10-07 05:12:00,
2013-10-07 01:17:00,66.9,62.3,29.87,East,90,0.0,0.0,85,0.13,,CLR,0.13,VWS V12.08,2013-10-07 05:17:00,
2013-10-07 01:22:00,66.7,62.4,29.86,East,90,0.0,0.0,86,0.19,,CLR,0.19,VWS V12.08,2013-10-07 05:22:00,
2013-10-07 01:27:00,67.1,62.8,29.87,ENE,68,1.3,1.3,86,0.19,,CLR,0.19,VWS V12.08,2013-10-07 05:27:00,
2013-10-07 01:32:00,67.1,63.1,29.87,ENE,68,0.0,1.3,87,0.19,,CLR,0.19,VWS V12.08,2013-10-07 05:32:00,
2013-10-07 01:37:00,67.1,63.1,29.87,ENE,68,0.0,1.3,87,0.22,,CLR,0.22,VWS V12.08,2013-10-07 05:37:00,
2013-10-07 01:42:00,67.1,63.1,29.87,ESE,112,0.0,0.0,87,0.22,,CLR,0.22,VWS V12.08,2013-10-07 05:42:00,
2013-10-07 01:47:00,67.1,63.1,29.86,ESE,112,0.0,0.0,87,0.22,,CLR,0.22,VWS V12.08,2013-10-07 05:47:00,
2013-10-07 01:52:00,67.3,63.6,29.86,NNE,22,0.0,0.0,88,0.22,,CLR,0.22,VWS V12.08,2013-10-07 05:52:00,
2013-10-07 01:57:00,67.3,63.6,29.86,West,270,0.0,0.0,88,0.19,,CLR,0.22,VWS V12.08,2013-10-07 05:57:00,
2013-10-07 02:02:00,67.3,63.6,29.86,WNW,292,0.0,0.0,88,0.22,,CLR,0.24,VWS V12.08,2013-10-07 06:02:00,
2013-10-07 02:07:00,67.3,63.6,29.86,East,90,2.0,2.0,88,0.19,,CLR,0.24,VWS V12.08,2013-10-07 06:07:00,
2013-10-07 02:12:00,67.3,63.6,29.86,East,90,2.0,2.0,88,0.15,,CLR,0.24,VWS V12.08,2013-10-07 06:12:00,
2013-10-07 02:17:00,67.3,63.6,29.86,ESE,112,0.0,2.0,88,0.06,,CLR,0.24,VWS V12.08,2013-10-07 06:17:00,
2013-10-07 02:22:00,67.3,63.6,29.85,ESE,112,0.0,0.0,88,0.04,,CLR,0.24,VWS V12.08,2013-10-07 06:22:00,
2013-10-07 02:27:00,67.3,63.6,29.85,NNE,22,0.0,0.0,88,0.04,,CLR,0.24,VWS V12.08,2013-10-07 06:27:00,
2013-10-07 02:32:00,67.3,63.6,29.85,NNE,22,0.0,0.0,88,0.02,,CLR,0.24,VWS V12.08,2013-10-07 06:32:00,
2013-10-07 02:37:00,67.3,63.6,29.85,NNE,22,0.0,0.0,88,0.06,,CLR,0.28,VWS V12.08,2013-10-07 06:37:00,
2013-10-07 02:42:00,67.3,63.6,29.84,ENE,68,0.0,0.0,88,0.06,,CLR,0.28,VWS V12.08,2013-10-07 06:42:00,
2013-10-07 02:47:00,67.3,63.6,29.84,SSE,158,0.0,0.0,88,0.11,,CLR,0.32,VWS V12.08,2013-10-07 06:47:00,
2013-10-07 02:52:00,67.3,63.6,29.84,East,90,0.0,0.0,88,0.11,,CLR,0.32,VWS V12.08,2013-10-07 06:52:00,
2013-10-07 02:57:00,67.3,63.6,29.83,NE,45,0.0,0.0,88,0.11,,CLR,0.32,VWS V12.08,2013-10-07 06:57:00,
2013-10-07 03:02:00,67.3,63.9,29.85,ESE,112,0.0,0.0,89,0.15,,CLR,0.39,VWS V12.08,2013-10-07 07:02:00,
2013-10-07 03:07:00,67.1,63.8,29.87,North,0,0.0,0.0,89,0.19,,CLR,0.56,VWS V12.08,2013-10-07 07:07:00,
2013-10-07 03:12:00,66.9,63.3,29.86,NW,315,5.1,5.1,88,0.35,,CLR,0.65,VWS V12.08,2013-10-07 07:12:00,
2013-10-07 03:17:00,66.0,62.4,29.85,NNE,22,2.0,5.1,88,0.48,,CLR,0.71,VWS V12.08,2013-10-07 07:17:00,
2013-10-07 03:22:00,65.1,61.2,29.83,WNW,292,0.0,4.9,87,0.48,,CLR,0.71,VWS V12.08,2013-10-07 07:22:00,
2013-10-07 03:27:00,64.9,61.3,29.84,NNE,22,0.0,4.9,88,0.50,,CLR,0.76,VWS V12.08,2013-10-07 07:27:00,
2013-10-07 03:32:00,64.6,61.0,29.83,NNE,22,0.0,4.9,88,0.52,,CLR,0.76,VWS V12.08,2013-10-07 07:32:00,
2013-10-07 03:37:00,64.6,61.0,29.83,NNE,22,0.0,4.9,88,0.48,,CLR,0.76,VWS V12.08,2013-10-07 07:37:00,
2013-10-07 03:42:00,64.4,60.8,29.85,NE,45,0.0,0.0,88,0.43,,CLR,0.76,VWS V12.08,2013-10-07 07:42:00,
2013-10-07 03:47:00,64.4,60.8,29.85,NNE,22,0.0,0.0,88,0.45,,CLR,0.78,VWS V12.08,2013-10-07 07:47:00,
2013-10-07 03:52:00,64.2,60.6,29.85,NNE,22,0.0,0.0,88,0.45,,CLR,0.78,VWS V12.08,2013-10-07 07:52:00,
2013-10-07 03:57:00,64.2,60.6,29.84,NNE,22,0.0,0.0,88,0.45,,CLR,0.78,VWS V12.08,2013-10-07 07:57:00,
2013-10-07 04:02:00,64.2,60.6,29.84,NE,45,0.0,0.0,88,0.37,,CLR,0.80,VWS V12.08,2013-10-07 08:02:00,
2013-10-07 04:07:00,64.2,60.6,29.83,NE,45,0.0,0.0,88,0.24,,CLR,0.80,VWS V12.08,2013-10-07 08:07:00,
2013-10-07 04:12:00,64.2,60.6,29.83,NE,45,0.0,0.0,88,0.15,,CLR,0.80,VWS V12.08,2013-10-07 08:12:00,
2013-10-07 04:17:00,64.2,60.9,29.83,NNE,22,0.0,0.0,89,0.11,,CLR,0.82,VWS V12.08,2013-10-07 08:17:00,
2013-10-07 04:22:00,64.2,60.9,29.83,NNE,22,0.0,0.0,89,0.13,,CLR,0.84,VWS V12.08,2013-10-07 08:22:00,
2013-10-07 04:27:00,64.2,60.9,29.83,NNE,22,0.0,0.0,89,0.09,,CLR,0.84,VWS V12.08,2013-10-07 08:27:00,
2013-10-07 04:32:00,64.2,60.9,29.83,NNE,22,0.0,0.0,89,0.09,,CLR,0.84,VWS V12.08,2013-10-07 08:32:00,
2013-10-07 04:37:00,64.2,60.9,29.84,ENE,68,0.0,0.0,89,0.13,,CLR,0.89,VWS V12.08,2013-10-07 08:37:00,
2013-10-07 04:42:00,64.2,60.9,29.83,ENE,68,0.0,0.0,89,0.11,,CLR,0.89,VWS V12.08,2013-10-07 08:42:00,
2013-10-07 04:47:00,64.2,60.9,29.84,ENE,68,0.0,0.0,89,0.11,,CLR,0.89,VWS V12.08,2013-10-07 08:47:00,
2013-10-07 04:52:00,64.2,60.9,29.84,ENE,68,0.0,0.0,89,0.11,,CLR,0.91,VWS V12.08,2013-10-07 08:52:00,
2013-10-07 04:57:00,64.2,60.9,29.84,ENE,68,0.0,0.0,89,0.11,,CLR,0.91,VWS V12.08,2013-10-07 08:57:00,
2013-10-07 05:02:00,64.0,60.7,29.83,ENE,68,0.0,0.0,89,0.15,,CLR,0.95,VWS V12.08,2013-10-07 09:02:00,
2013-10-07 05:07:00,64.0,60.7,29.84,ENE,68,0.0,0.0,89,0.15,,CLR,0.99,VWS V12.08,2013-10-07 09:07:00,
2013-10-07 05:12:00,64.0,60.7,29.83,ENE,68,0.0,0.0,89,0.24,,CLR,1.04,VWS V12.08,2013-10-07 09:12:00,
2013-10-07 05:17:00,64.0,60.7,29.83,ENE,68,0.0,0.0,89,0.19,,CLR,1.04,VWS V12.08,2013-10-07 09:17:00,
2013-10-07 05:22:00,64.0,60.7,29.83,ENE,68,0.0,0.0,89,0.19,,CLR,1.04,VWS V12.08,2013-10-07 09:22:00,
2013-10-07 05:27:00,64.0,60.7,29.83,ENE,68,0.0,0.0,89,0.24,,CLR,1.08,VWS V12.08,2013-10-07 09:27:00,
2013-10-07 05:32:00,64.0,60.7,29.82,ENE,68,0.0,0.0,89,0.24,,CLR,1.08,VWS V12.08,2013-10-07 09:32:00,
2013-10-07 05:37:00,63.9,60.6,29.83,WNW,292,0.0,0.0,89,0.19,,CLR,1.08,VWS V12.08,2013-10-07 09:37:00,
2013-10-07 05:42:00,63.9,60.6,29.83,WNW,292,0.0,0.0,89,0.19,,CLR,1.08,VWS V12.08,2013-10-07 09:42:00,
2013-10-07 05:47:00,63.9,60.6,29.83,WNW,292,0.0,0.0,89,0.22,,CLR,1.10,VWS V12.08,2013-10-07 09:47:00,
2013-10-07 05:52:00,64.0,60.7,29.83,WNW,292,0.0,0.0,89,0.22,,CLR,1.10,VWS V12.08,2013-10-07 09:52:00,
2013-10-07 05:57:00,64.0,60.7,29.83,WNW,292,0.0,0.0,89,0.15,,CLR,1.10,VWS V12.08,2013-10-07 09:57:00,
2013-10-07 06:02:00,64.0,60.7,29.83,WNW,292,0.0,0.0,89,0.11,,CLR,1.10,VWS V12.08,2013-10-07 10:02:00,
2013-10-07 06:07:00,64.0,60.7,29.84,WNW,292,0.0,0.0,89,0.11,,CLR,1.10,VWS V12.08,2013-10-07 10:07:00,
2013-10-07 06:12:00,64.0,60.7,29.84,WNW,292,0.0,0.0,89,0.06,,CLR,1.10,VWS V12.08,2013-10-07 10:12:00,
2013-10-07 06:17:00,63.9,60.6,29.84,NW,315,0.0,0.0,89,0.09,,CLR,1.12,VWS V12.08,2013-10-07 10:17:00,
2013-10-07 06:22:00,63.9,60.6,29.84,NW,315,0.0,0.0,89,0.11,,CLR,1.15,VWS V12.08,2013-10-07 10:22:00,
2013-10-07 06:28:00,63.9,60.6,29.85,NW,315,0.0,0.0,89,0.06,,CLR,1.17,VWS V12.08,2013-10-07 10:28:00,
2013-10-07 06:33:00,63.9,60.6,29.85,NW,315,0.0,0.0,89,0.11,,CLR,1.19,VWS V12.08,2013-10-07 10:33:00,
2013-10-07 06:38:00,63.9,60.6,29.85,NW,315,0.0,0.0,89,0.11,,CLR,1.19,VWS V12.08,2013-10-07 10:38:00,
2013-10-07 06:43:00,63.9,60.6,29.86,NW,315,0.0,0.0,89,0.09,,CLR,1.19,VWS V12.08,2013-10-07 10:43:00,
2013-10-07 06:48:00,63.7,60.4,29.85,NW,315,0.0,0.0,89,0.13,,CLR,1.23,VWS V12.08,2013-10-07 10:48:00,
2013-10-07 06:53:00,63.7,60.4,29.85,NW,315,0.0,0.0,89,0.15,,CLR,1.25,VWS V12.08,2013-10-07 10:53:00,
2013-10-07 06:58:00,63.7,60.4,29.84,NW,315,0.0,0.0,89,0.15,,CLR,1.25,VWS V12.08,2013-10-07 10:58:00,
2013-10-07 07:03:00,63.7,60.4,29.84,NW,315,0.0,0.0,89,0.17,,CLR,1.28,VWS V12.08,2013-10-07 11:03:00,
2013-10-07 07:08:00,63.9,60.6,29.84,NW,315,0.0,0.0,89,0.17,,CLR,1.28,VWS V12.08,2013-10-07 11:08:00,
2013-10-07 07:13:00,63.9,60.6,29.85,NW,315,0.0,0.0,89,0.15,,CLR,1.28,VWS V12.08,2013-10-07 11:13:00,
2013-10-07 07:18:00,63.9,60.6,29.84,NW,315,0.0,0.0,89,0.15,,CLR,1.28,VWS V12.08,2013-10-07 11:18:00,
2013-10-07 07:23:00,63.7,60.4,29.84,NW,315,0.0,0.0,89,0.15,,CLR,1.30,VWS V12.08,2013-10-07 11:23:00,
2013-10-07 07:28:00,63.9,60.6,29.84,NW,315,0.0,0.0,89,0.17,,CLR,1.32,VWS V12.08,2013-10-07 11:28:00,
2013-10-07 07:33:00,63.9,60.6,29.84,NW,315,0.0,0.0,89,0.13,,CLR,1.32,VWS V12.08,2013-10-07 11:33:00,
2013-10-07 07:38:00,63.9,60.6,29.84,NW,315,0.0,0.0,89,0.13,,CLR,1.32,VWS V12.08,2013-10-07 11:38:00,
2013-10-07 07:43:00,63.7,60.4,29.84,NW,315,0.0,0.0,89,0.13,,CLR,1.32,VWS V12.08,2013-10-07 11:43:00,
2013-10-07 07:48:00,63.7,60.4,29.84,NW,315,0.0,0.0,89,0.11,,CLR,1.32,VWS V12.08,2013-10-07 11:48:00,
2013-10-07 07:53:00,63.7,60.4,29.83,NW,315,0.0,0.0,89,0.06,,CLR,1.32,VWS V12.08,2013-10-07 11:53:00,
2013-10-07 07:58:00,63.9,60.9,29.83,NE,45,0.0,0.0,90,0.06,,CLR,1.32,VWS V12.08,2013-10-07 11:58:00,
2013-10-07 08:03:00,63.9,60.9,29.83,NE,45,0.0,0.0,90,0.06,,CLR,1.32,VWS V12.08,2013-10-07 12:03:00,
2013-10-07 08:08:00,63.7,60.7,29.85,NE,45,0.0,0.0,90,0.04,,CLR,1.32,VWS V12.08,2013-10-07 12:08:00,
2013-10-07 08:13:00,63.9,60.9,29.84,NE,45,0.0,0.0,90,0.04,,CLR,1.32,VWS V12.08,2013-10-07 12:13:00,
2013-10-07 08:18:00,63.9,60.9,29.82,NE,45,0.0,0.0,90,0.02,,CLR,1.32,VWS V12.08,2013-10-07 12:18:00,
2013-10-07 08:23:00,63.7,60.7,29.83,NE,45,0.0,0.0,90,0.04,,CLR,1.34,VWS V12.08,2013-10-07 12:23:00,
2013-10-07 08:28:00,63.9,60.9,29.84,NE,45,0.0,0.0,90,0.04,,CLR,1.36,VWS V12.08,2013-10-07 12:28:00,
2013-10-07 08:33:00,63.9,60.9,29.86,NE,45,0.0,0.0,90,0.04,,CLR,1.36,VWS V12.08,2013-10-07 12:33:00,
2013-10-07 08:38:00,64.0,61.0,29.86,NE,45,0.0,0.0,90,0.04,,CLR,1.36,VWS V12.08,2013-10-07 12:38:00,
2013-10-07 08:43:00,64.0,61.0,29.86,NNW,338,0.0,0.0,90,0.04,,CLR,1.36,VWS V12.08,2013-10-07 12:43:00,
2013-10-07 08:48:00,64.0,61.0,29.87,NNW,338,0.0,0.0,90,0.04,,CLR,1.36,VWS V12.08,2013-10-07 12:48:00,
2013-10-07 08:53:00,64.0,61.0,29.87,NNW,338,0.0,0.0,90,0.04,,CLR,1.36,VWS V12.08,2013-10-07 12:53:00,
2013-10-07 08:58:00,64.2,61.2,29.86,NW,315,0.0,0.0,90,0.04,,CLR,1.36,VWS V12.08,2013-10-07 12:58:00,
2013-10-07 09:03:00,64.2,61.2,29.87,NW,315,0.0,0.0,90,0.04,,CLR,1.36,VWS V12.08,2013-10-07 13:03:00,
2013-10-07 09:08:00,64.2,61.2,29.87,NW,315,0.0,0.0,90,0.04,,CLR,1.36,VWS V12.08,2013-10-07 13:08:00,
2013-10-07 09:13:00,64.2,61.2,29.87,NW,315,0.0,0.0,90,0.06,,CLR,1.38,VWS V12.08,2013-10-07 13:13:00,
2013-10-07 09:18:00,64.2,61.2,29.87,NW,315,0.0,0.0,90,0.04,,CLR,1.38,VWS V12.08,2013-10-07 13:18:00,
2013-10-07 09:23:00,64.6,61.6,29.87,NW,315,0.0,0.0,90,0.04,,CLR,1.38,VWS V12.08,2013-10-07 13:23:00,
2013-10-07 09:28:00,64.8,61.8,29.87,West,270,0.0,0.0,90,0.02,,CLR,1.38,VWS V12.08,2013-10-07 13:28:00,
2013-10-07 09:33:00,64.9,61.9,29.87,West,270,0.0,0.0,90,0.02,,CLR,1.38,VWS V12.08,2013-10-07 13:33:00,
2013-10-07 09:38:00,64.9,61.9,29.87,West,270,0.0,0.0,90,0.02,,CLR,1.38,VWS V12.08,2013-10-07 13:38:00,
2013-10-07 09:43:00,65.1,62.1,29.88,West,270,0.0,0.0,90,0.02,,CLR,1.38,VWS V12.08,2013-10-07 13:43:00,
2013-10-07 09:48:00,65.1,62.1,29.87,West,270,0.0,0.0,90,0.02,,CLR,1.38,VWS V12.08,2013-10-07 13:48:00,
2013-10-07 09:53:00,65.1,62.1,29.87,West,270,0.0,0.0,90,0.02,,CLR,1.38,VWS V12.08,2013-10-07 13:53:00,
2013-10-07 09:58:00,65.3,62.3,29.87,West,270,0.0,0.0,90,0.02,,CLR,1.38,VWS V12.08,2013-10-07 13:58:00,
2013-10-07 10:03:00,65.5,62.5,29.88,West,270,0.0,0.0,90,0.02,,CLR,1.38,VWS V12.08,2013-10-07 14:03:00,
2013-10-07 10:08:00,65.7,62.7,29.87,West,270,0.0,0.0,90,0.02,,CLR,1.38,VWS V12.08,2013-10-07 14:08:00,
2013-10-07 10:13:00,65.7,62.7,29.88,West,270,0.0,0.0,90,0.00,,CLR,1.38,VWS V12.08,2013-10-07 14:13:00,
2013-10-07 10:18:00,66.0,63.3,29.87,NW,315,0.0,0.0,91,0.00,,CLR,1.38,VWS V12.08,2013-10-07 14:18:00,
2013-10-07 10:23:00,66.4,63.7,29.88,NW,315,0.0,0.0,91,0.00,,CLR,1.38,VWS V12.08,2013-10-07 14:23:00,
2013-10-07 10:28:00,66.6,63.9,29.88,WNW,292,0.0,0.0,91,0.00,,CLR,1.38,VWS V12.08,2013-10-07 14:28:00,
2013-10-07 10:33:00,66.7,63.7,29.88,NW,315,0.7,0.7,90,0.00,,CLR,1.38,VWS V12.08,2013-10-07 14:33:00,
2013-10-07 10:38:00,66.7,63.7,29.88,NW,315,0.0,0.7,90,0.00,,CLR,1.38,VWS V12.08,2013-10-07 14:38:00,
2013-10-07 10:43:00,66.7,63.7,29.88,NW,315,0.0,1.1,90,0.00,,CLR,1.38,VWS V12.08,2013-10-07 14:43:00,
2013-10-07 10:48:00,66.9,63.9,29.88,WNW,292,0.0,1.1,90,0.00,,CLR,1.38,VWS V12.08,2013-10-07 14:48:00,
2013-10-07 10:53:00,67.1,64.1,29.88,NNW,338,0.0,1.1,90,0.00,,CLR,1.38,VWS V12.08,2013-10-07 14:53:00,
2013-10-07 10:58:00,67.1,64.1,29.88,NNW,338,0.0,1.1,90,0.00,,CLR,1.38,VWS V12.08,2013-10-07 14:58:00,
2013-10-07 11:03:00,67.3,63.9,29.88,NW,315,0.0,0.0,89,0.00,,CLR,1.38,VWS V12.08,2013-10-07 15:03:00,
2013-10-07 11:08:00,67.1,63.8,29.88,NW,315,0.0,0.0,89,0.00,,CLR,1.38,VWS V12.08,2013-10-07 15:08:00,
2013-10-07 11:13:00,67.1,63.4,29.87,West,270,0.0,0.0,88,0.00,,CLR,1.38,VWS V12.08,2013-10-07 15:13:00,
2013-10-07 11:18:00,67.3,63.6,29.87,WNW,292,0.0,0.0,88,0.00,,CLR,1.38,VWS V12.08,2013-10-07 15:18:00,
2013-10-07 11:23:00,67.6,64.0,29.88,NW,315,0.0,0.0,88,0.00,,CLR,1.38,VWS V12.08,2013-10-07 15:23:00,
2013-10-07 11:28:00,67.6,64.0,29.88,North,0,0.0,0.9,88,0.00,,CLR,1.38,VWS V12.08,2013-10-07 15:28:00,
2013-10-07 11:33:00,67.8,63.8,29.87,West,270,0.0,0.9,87,0.00,,CLR,1.38,VWS V12.08,2013-10-07 15:33:00,
2013-10-07 11:38:00,67.8,63.8,29.88,WNW,292,0.0,0.9,87,0.00,,CLR,1.38,VWS V12.08,2013-10-07 15:38:00,
2013-10-07 11:43:00,67.8,63.8,29.88,WNW,292,0.0,0.0,87,0.00,,CLR,1.38,VWS V12.08,2013-10-07 15:43:00,
2013-10-07 11:48:00,68.4,64.3,29.88,WNW,292,3.4,3.4,87,0.00,,CLR,1.38,VWS V12.08,2013-10-07 15:48:00,
2013-10-07 11:53:00,68.7,64.4,29.88,NW,315,0.0,3.4,86,0.00,,CLR,1.38,VWS V12.08,2013-10-07 15:53:00,
2013-10-07 11:58:00,68.7,64.4,29.88,NW,315,0.0,3.4,86,0.00,,CLR,1.38,VWS V12.08,2013-10-07 15:58:00,
2013-10-07 12:03:00,69.3,64.6,29.88,West,270,0.0,0.0,85,0.00,,CLR,1.38,VWS V12.08,2013-10-07 16:03:00,
2013-10-07 12:08:00,69.3,64.6,29.88,West,270,0.0,0.0,85,0.00,,CLR,1.38,VWS V12.08,2013-10-07 16:08:00,
2013-10-07 12:13:00,70.0,64.9,29.88,WSW,248,0.0,0.0,84,0.00,,CLR,1.38,VWS V12.08,2013-10-07 16:13:00,
2013-10-07 12:18:00,70.2,64.4,29.88,NW,315,0.0,1.6,82,0.00,,CLR,1.38,VWS V12.08,2013-10-07 16:18:00,
2013-10-07 12:23:00,70.2,64.4,29.88,NW,315,0.0,0.0,82,0.00,,CLR,1.38,VWS V12.08,2013-10-07 16:23:00,
2013-10-07 12:28:00,70.3,64.6,29.88,West,270,0.0,0.0,82,0.00,,CLR,1.38,VWS V12.08,2013-10-07 16:28:00,
2013-10-07 12:33:00,70.5,64.1,29.88,NW,315,1.6,1.6,80,0.00,,CLR,1.38,VWS V12.08,2013-10-07 16:33:00,
2013-10-07 12:38:00,70.5,64.1,29.87,NW,315,1.6,1.6,80,0.00,,CLR,1.38,VWS V12.08,2013-10-07 16:38:00,
2013-10-07 12:43:00,70.7,63.5,29.88,NW,315,1.3,1.6,78,0.00,,CLR,1.38,VWS V12.08,2013-10-07 16:43:00,
2013-10-07 12:48:00,70.9,63.7,29.87,NW,315,0.0,1.6,78,0.00,,CLR,1.38,VWS V12.08,2013-10-07 16:48:00,
2013-10-07 12:53:00,71.2,63.7,29.88,NW,315,4.3,4.3,77,0.00,,CLR,1.38,VWS V12.08,2013-10-07 16:53:00,
2013-10-07 12:58:00,71.2,64.0,29.88,NW,315,0.0,4.3,78,0.00,,CLR,1.38,VWS V12.08,2013-10-07 16:58:00,
2013-10-07 13:03:00,71.2,63.7,29.87,NW,315,0.0,0.0,77,0.00,,CLR,1.38,VWS V12.08,2013-10-07 17:03:00,
2013-10-07 13:08:00,71.2,63.3,29.88,WNW,292,0.0,0.0,76,0.00,,CLR,1.38,VWS V12.08,2013-10-07 17:08:00,
2013-10-07 13:13:00,70.9,63.3,29.88,WNW,292,0.0,0.0,77,0.00,,CLR,1.38,VWS V12.08,2013-10-07 17:13:00,
2013-10-07 13:18:00,70.7,63.1,29.88,NW,315,0.0,0.0,77,0.00,,CLR,1.38,VWS V12.08,2013-10-07 17:18:00,
2013-10-07 13:23:00,70.5,63.3,29.88,NW,315,0.0,0.0,78,0.00,,CLR,1.38,VWS V12.08,2013-10-07 17:23:00,
2013-10-07 13:28:00,70.5,63.3,29.88,NW,315,0.0,0.0,78,0.00,,CLR,1.38,VWS V12.08,2013-10-07 17:28:00,
2013-10-07 13:33:00,70.5,63.7,29.88,NW,315,0.0,0.0,79,0.00,,CLR,1.38,VWS V12.08,2013-10-07 17:33:00,
2013-10-07 13:38:00,70.9,64.4,29.88,WNW,292,0.0,0.0,80,0.00,,CLR,1.38,VWS V12.08,2013-10-07 17:38:00,
2013-10-07 13:43:00,71.2,64.4,29.88,NW,315,0.0,0.0,79,0.00,,CLR,1.38,VWS V12.08,2013-10-07 17:43:00,
2013-10-07 13:48:00,70.7,62.4,29.88,NW,315,1.6,1.6,75,0.00,,CLR,1.38,VWS V12.08,2013-10-07 17:48:00,
2013-10-07 13:53:00,70.2,61.1,29.88,West,270,0.7,1.6,73,0.00,,CLR,1.38,VWS V12.08,2013-10-07 17:53:00,
2013-10-07 13:58:00,69.4,60.0,29.88,NW,315,0.0,1.6,72,0.00,,CLR,1.38,VWS V12.08,2013-10-07 17:58:00,
2013-10-07 14:03:00,68.7,60.1,29.88,WNW,292,0.0,0.4,74,0.00,,CLR,1.38,VWS V12.08,2013-10-07 18:03:00,
2013-10-07 14:08:00,68.7,59.7,29.88,West,270,0.0,0.4,73,0.00,,CLR,1.38,VWS V12.08,2013-10-07 18:08:00,
2013-10-07 14:13:00,68.5,59.9,29.88,West,270,0.0,0.4,74,0.00,,CLR,1.38,VWS V12.08,2013-10-07 18:13:00,
2013-10-07 14:18:00,68.5,60.3,29.88,WNW,292,1.3,1.3,75,0.00,,CLR,1.38,VWS V12.08,2013-10-07 18:18:00,
2013-10-07 14:23:00,68.5,60.3,29.88,WNW,292,1.3,1.3,75,0.00,,CLR,1.38,VWS V12.08,2013-10-07 18:23:00,
2013-10-07 14:28:00,69.1,61.9,29.88,WNW,292,0.0,1.3,78,0.00,,CLR,1.38,VWS V12.08,2013-10-07 18:28:00,
2013-10-07 14:33:00,69.1,61.6,29.89,WNW,292,0.0,1.3,77,0.00,,CLR,1.38,VWS V12.08,2013-10-07 18:33:00,
2013-10-07 14:38:00,69.1,61.2,29.89,ENE,68,0.4,1.3,76,0.00,,CLR,1.38,VWS V12.08,2013-10-07 18:38:00,
2013-10-07 14:43:00,69.4,61.2,29.88,ENE,68,0.0,0.0,75,0.00,,CLR,1.38,VWS V12.08,2013-10-07 18:43:00,
2013-10-07 14:48:00,69.4,59.6,29.89,NW,315,1.6,4.0,71,0.00,,CLR,1.38,VWS V12.08,2013-10-07 18:48:00,
2013-10-07 14:53:00,69.3,59.5,29.89,NW,315,2.5,4.0,71,0.00,,CLR,1.38,VWS V12.08,2013-10-07 18:53:00,
2013-10-07 14:58:00,69.3,59.5,29.89,WNW,292,0.0,4.0,71,0.00,,CLR,1.38,VWS V12.08,2013-10-07 18:58:00,
2013-10-07 15:03:00,69.3,59.9,29.89,East,90,0.0,0.0,72,0.00,,CLR,1.38,VWS V12.08,2013-10-07 19:03:00,
2013-10-07 15:08:00,69.4,60.8,29.88,ENE,68,0.0,0.0,74,0.00,,CLR,1.38,VWS V12.08,2013-10-07 19:08:00,
2013-10-07 15:13:00,69.4,60.8,29.88,East,90,0.0,0.0,74,0.00,,CLR,1.38,VWS V12.08,2013-10-07 19:13:00,
2013-10-07 15:18:00,69.3,60.2,29.88,West,270,2.2,3.4,73,0.00,,CLR,1.38,VWS V12.08,2013-10-07 19:18:00,
2013-10-07 15:23:00,69.1,59.7,29.89,West,270,0.0,0.0,72,0.00,,CLR,1.38,VWS V12.08,2013-10-07 19:23:00,
2013-10-07 15:28:00,69.1,59.3,29.89,NW,315,0.0,3.1,71,0.00,,CLR,1.38,VWS V12.08,2013-10-07 19:28:00,
2013-10-07 15:33:00,69.1,59.7,29.89,NE,45,0.0,3.1,72,0.00,,CLR,1.38,VWS V12.08,2013-10-07 19:33:00,
2013-10-07 15:38:00,69.3,59.5,29.89,NW,315,1.6,3.4,71,0.00,,CLR,1.38,VWS V12.08,2013-10-07 19:38:00,
2013-10-07 15:43:00,69.1,58.9,29.90,NNE,22,0.0,4.9,70,0.00,,CLR,1.38,VWS V12.08,2013-10-07 19:43:00,
2013-10-07 15:48:00,69.1,58.5,29.89,WNW,292,1.3,4.9,69,0.00,,CLR,1.38,VWS V12.08,2013-10-07 19:48:00,
2013-10-07 15:53:00,69.1,58.1,29.89,NW,315,0.0,4.9,68,0.00,,CLR,1.38,VWS V12.08,2013-10-07 19:53:00,
2013-10-07 15:59:00,69.1,57.7,29.89,NW,315,0.0,6.7,67,0.00,,CLR,1.38,VWS V12.08,2013-10-07 19:59:00,
2013-10-07 16:04:00,68.9,57.5,29.89,NW,315,0.0,2.9,67,0.00,,CLR,1.38,VWS V12.08,2013-10-07 20:04:00,
2013-10-07 16:09:00,68.7,56.9,29.90,NW,315,2.2,2.9,66,0.00,,CLR,1.38,VWS V12.08,2013-10-07 20:09:00,
2013-10-07 16:14:00,68.7,56.9,29.90,NW,315,0.0,3.8,66,0.00,,CLR,1.38,VWS V12.08,2013-10-07 20:14:00,
2013-10-07 16:19:00,68.5,56.7,29.89,NW,315,0.0,3.8,66,0.00,,CLR,1.38,VWS V12.08,2013-10-07 20:19:00,
2013-10-07 16:24:00,68.4,57.0,29.89,NW,315,0.0,1.1,67,0.00,,CLR,1.38,VWS V12.08,2013-10-07 20:24:00,
2013-10-07 16:29:00,68.2,57.2,29.89,NNW,338,0.0,1.1,68,0.00,,CLR,1.38,VWS V12.08,2013-10-07 20:29:00,
2013-10-07 16:34:00,68.2,57.6,29.90,NNW,338,0.0,1.1,69,0.00,,CLR,1.38,VWS V12.08,2013-10-07 20:34:00,
2013-10-07 16:39:00,67.8,57.3,29.90,NNW,338,0.0,1.1,69,0.00,,CLR,1.38,VWS V12.08,2013-10-07 20:39:00,
2013-10-07 16:44:00,67.8,56.9,29.90,WNW,292,0.0,0.7,68,0.00,,CLR,1.38,VWS V12.08,2013-10-07 20:44:00,
2013-10-07 16:49:00,67.8,56.5,29.90,NW,315,0.0,6.3,67,0.00,,CLR,1.38,VWS V12.08,2013-10-07 20:49:00,
2013-10-07 16:54:00,67.6,56.3,29.90,NW,315,0.0,6.3,67,0.00,,CLR,1.38,VWS V12.08,2013-10-07 20:54:00,
2013-10-07 16:59:00,67.3,57.2,29.90,NE,45,0.0,6.3,70,0.00,,CLR,1.38,VWS V12.08,2013-10-07 20:59:00,
2013-10-07 17:04:00,66.9,56.0,29.91,NW,315,0.0,0.0,68,0.00,,CLR,1.38,VWS V12.08,2013-10-07 21:04:00,
2013-10-07 17:09:00,66.7,55.8,29.91,NE,45,0.0,1.1,68,0.00,,CLR,1.38,VWS V12.08,2013-10-07 21:09:00,
2013-10-07 17:14:00,66.6,56.1,29.91,NNW,338,0.0,1.1,69,0.00,,CLR,1.38,VWS V12.08,2013-10-07 21:14:00,
2013-10-07 17:19:00,66.4,55.9,29.90,NNW,338,0.0,1.1,69,0.00,,CLR,1.38,VWS V12.08,2013-10-07 21:19:00,
2013-10-07 17:24:00,66.0,55.2,29.91,NW,315,0.0,2.2,68,0.00,,CLR,1.38,VWS V12.08,2013-10-07 21:24:00,
2013-10-07 17:29:00,66.0,55.2,29.91,NW,315,0.0,2.2,68,0.00,,CLR,1.38,VWS V12.08,2013-10-07 21:29:00,
2013-10-07 17:34:00,65.8,55.0,29.91,WNW,292,0.0,2.9,68,0.00,,CLR,1.38,VWS V12.08,2013-10-07 21:34:00,
2013-10-07 17:39:00,65.5,54.7,29.90,WNW,292,0.0,2.9,68,0.00,,CLR,1.38,VWS V12.08,2013-10-07 21:39:00,
2013-10-07 17:44:00,65.3,54.5,29.91,North,0,0.0,2.9,68,0.00,,CLR,1.38,VWS V12.08,2013-10-07 21:44:00,
2013-10-07 17:49:00,65.3,54.9,29.91,North,0,0.0,2.9,69,0.00,,CLR,1.38,VWS V12.08,2013-10-07 21:49:00,
2013-10-07 17:54:00,65.3,55.3,29.91,NE,45,0.0,2.9,70,0.00,,CLR,1.38,VWS V12.08,2013-10-07 21:54:00,
2013-10-07 17:59:00,65.1,55.5,29.91,NE,45,0.0,2.9,71,0.00,,CLR,1.38,VWS V12.08,2013-10-07 21:59:00,
2013-10-07 18:04:00,65.1,55.5,29.91,NW,315,0.0,4.3,71,0.00,,CLR,1.38,VWS V12.08,2013-10-07 22:04:00,
2013-10-07 18:09:00,64.8,55.5,29.92,NW,315,0.0,4.3,72,0.00,,CLR,1.38,VWS V12.08,2013-10-07 22:09:00,
2013-10-07 18:14:00,64.6,55.0,29.92,NW,315,0.0,4.3,71,0.00,,CLR,1.38,VWS V12.08,2013-10-07 22:14:00,
2013-10-07 18:19:00,64.2,54.2,29.92,NW,315,0.0,4.3,70,0.00,,CLR,1.38,VWS V12.08,2013-10-07 22:19:00,
2013-10-07 18:24:00,64.0,54.8,29.92,NW,315,0.0,0.0,72,0.00,,CLR,1.38,VWS V12.08,2013-10-07 22:24:00,
2013-10-07 18:29:00,63.7,55.2,29.93,NW,315,0.0,0.0,74,0.00,,CLR,1.38,VWS V12.08,2013-10-07 22:29:00,
2013-10-07 18:34:00,63.5,55.1,29.93,NW,315,0.0,0.0,74,0.00,,CLR,1.38,VWS V12.08,2013-10-07 22:34:00,
2013-10-07 18:39:00,63.1,55.1,29.93,NW,315,0.0,0.0,75,0.00,,CLR,1.38,VWS V12.08,2013-10-07 22:39:00,
2013-10-07 18:44:00,63.0,54.9,29.93,NW,315,0.0,0.0,75,0.00,,CLR,1.38,VWS V12.08,2013-10-07 22:44:00,
2013-10-07 18:49:00,62.6,54.6,29.94,NW,315,0.0,0.0,75,0.00,,CLR,1.38,VWS V12.08,2013-10-07 22:49:00,
2013-10-07 18:54:00,62.4,54.4,29.93,NW,315,0.0,0.0,75,0.00,,CLR,1.38,VWS V12.08,2013-10-07 22:54:00,
2013-10-07 18:59:00,62.2,54.6,29.94,NW,315,0.0,0.0,76,0.00,,CLR,1.38,VWS V12.08,2013-10-07 22:59:00,
2013-10-07 19:04:00,62.1,54.4,29.94,NW,315,0.0,0.0,76,0.00,,CLR,1.38,VWS V12.08,2013-10-07 23:04:00,
2013-10-07 19:09:00,61.9,54.6,29.93,NW,315,0.0,0.0,77,0.00,,CLR,1.38,VWS V12.08,2013-10-07 23:09:00,
2013-10-07 19:14:00,61.5,54.2,29.93,NW,315,0.0,0.0,77,0.00,,CLR,1.38,VWS V12.08,2013-10-07 23:14:00,
2013-10-07 19:19:00,61.5,54.2,29.93,NW,315,0.0,0.0,77,0.00,,CLR,1.38,VWS V12.08,2013-10-07 23:19:00,
2013-10-07 19:24:00,61.3,54.1,29.93,NW,315,0.0,0.0,77,0.00,,CLR,1.38,VWS V12.08,2013-10-07 23:24:00,
2013-10-07 19:29:00,61.0,54.1,29.93,NW,315,0.0,0.0,78,0.00,,CLR,1.38,VWS V12.08,2013-10-07 23:29:00,
2013-10-07 19:34:00,60.6,53.7,29.93,ENE,68,0.0,0.0,78,0.00,,CLR,1.38,VWS V12.08,2013-10-07 23:34:00,
2013-10-07 19:39:00,60.6,53.7,29.93,ENE,68,0.0,0.0,78,0.00,,CLR,1.38,VWS V12.08,2013-10-07 23:39:00,
2013-10-07 19:44:00,60.1,53.2,29.94,ENE,68,0.0,0.0,78,0.00,,CLR,1.38,VWS V12.08,2013-10-07 23:44:00,
2013-10-07 19:49:00,60.1,53.2,29.93,ENE,68,0.0,0.0,78,0.00,,CLR,1.38,VWS V12.08,2013-10-07 23:49:00,
2013-10-07 19:54:00,59.7,52.9,29.94,ENE,68,0.0,0.0,78,0.00,,CLR,1.38,VWS V12.08,2013-10-07 23:54:00,
2013-10-07 19:59:00,59.5,52.7,29.94,ENE,68,0.0,0.0,78,0.00,,CLR,1.38,VWS V12.08,2013-10-07 23:59:00,
2013-10-07 20:04:00,59.5,52.7,29.94,ENE,68,0.0,0.0,78,0.00,,CLR,1.38,VWS V12.08,2013-10-08 00:04:00,
2013-10-07 20:09:00,59.2,52.7,29.94,ENE,68,0.0,0.0,79,0.00,,CLR,1.38,VWS V12.08,2013-10-08 00:09:00,
2013-10-07 20:14:00,58.8,52.3,29.94,ENE,68,0.0,0.0,79,0.00,,CLR,1.38,VWS V12.08,2013-10-08 00:14:00,
2013-10-07 20:19:00,58.8,52.3,29.94,ENE,68,0.0,0.0,79,0.00,,CLR,1.38,VWS V12.08,2013-10-08 00:19:00,
2013-10-07 20:24:00,58.8,52.7,29.95,ENE,68,0.0,0.0,80,0.00,,CLR,1.38,VWS V12.08,2013-10-08 00:24:00,
2013-10-07 20:29:00,58.8,52.7,29.95,ENE,68,0.0,0.0,80,0.00,,CLR,1.38,VWS V12.08,2013-10-08 00:29:00,
2013-10-07 20:34:00,58.8,52.7,29.95,ENE,68,0.0,0.0,80,0.00,,CLR,1.38,VWS V12.08,2013-10-08 00:34:00,
2013-10-07 20:39:00,58.8,52.7,29.96,ENE,68,0.0,0.0,80,0.00,,CLR,1.38,VWS V12.08,2013-10-08 00:39:00,
2013-10-07 20:44:00,58.6,52.5,29.96,ESE,112,0.0,0.0,80,0.00,,CLR,1.38,VWS V12.08,2013-10-08 00:44:00,
2013-10-07 20:49:00,58.5,52.3,29.96,ESE,112,0.0,0.0,80,0.00,,CLR,1.38,VWS V12.08,2013-10-08 00:49:00,
2013-10-07 20:54:00,58.1,52.0,29.97,ESE,112,0.0,0.0,80,0.00,,CLR,1.38,VWS V12.08,2013-10-08 00:54:00,
2013-10-07 20:59:00,57.9,52.1,29.97,ESE,112,0.0,0.0,81,0.00,,CLR,1.38,VWS V12.08,2013-10-08 00:59:00,
2013-10-07 21:04:00,57.9,52.1,29.98,ESE,112,0.0,0.0,81,0.00,,CLR,1.38,VWS V12.08,2013-10-08 01:04:00,
2013-10-07 21:09:00,57.7,52.0,29.97,ESE,112,0.0,0.0,81,0.00,,CLR,1.38,VWS V12.08,2013-10-08 01:09:00,
2013-10-07 21:14:00,57.6,51.8,29.98,ESE,112,0.0,0.0,81,0.00,,CLR,1.38,VWS V12.08,2013-10-08 01:14:00,
2013-10-07 21:19:00,57.4,51.6,29.98,ESE,112,0.0,0.0,81,0.00,,CLR,1.38,VWS V12.08,2013-10-08 01:19:00,
2013-10-07 21:24:00,57.0,51.3,29.98,ESE,112,0.0,0.0,81,0.00,,CLR,1.38,VWS V12.08,2013-10-08 01:24:00,
2013-10-07 21:29:00,57.0,51.3,29.98,ESE,112,0.0,0.0,81,0.00,,CLR,1.38,VWS V12.08,2013-10-08 01:29:00,
2013-10-07 21:34:00,57.0,51.3,29.98,ESE,112,0.0,0.0,81,0.00,,CLR,1.38,VWS V12.08,2013-10-08 01:34:00,
2013-10-07 21:39:00,56.8,51.1,29.98,ESE,112,0.0,0.0,81,0.00,,CLR,1.38,VWS V12.08,2013-10-08 01:39:00,
2013-10-07 21:44:00,56.8,51.1,29.99,ESE,112,0.0,0.0,81,0.00,,CLR,1.38,VWS V12.08,2013-10-08 01:44:00,
2013-10-07 21:49:00,56.8,51.1,29.99,ESE,112,0.0,0.0,81,0.00,,CLR,1.38,VWS V12.08,2013-10-08 01:49:00,
2013-10-07 21:54:00,56.8,51.1,29.99,ESE,112,0.0,0.0,81,0.00,,CLR,1.38,VWS V12.08,2013-10-08 01:54:00,
2013-10-07 21:59:00,56.5,51.1,30.00,ESE,112,0.0,0.0,82,0.00,,CLR,1.38,VWS V12.08,2013-10-08 01:59:00,
2013-10-07 22:04:00,56.5,51.1,30.00,ESE,112,0.0,0.0,82,0.00,,CLR,1.38,VWS V12.08,2013-10-08 02:04:00,
2013-10-07 22:09:00,56.5,51.1,30.00,ESE,112,0.0,0.0,82,0.00,,CLR,1.38,VWS V12.08,2013-10-08 02:09:00,
2013-10-07 22:14:00,56.3,50.9,30.00,ESE,112,0.0,0.0,82,0.00,,CLR,1.38,VWS V12.08,2013-10-08 02:14:00,
2013-10-07 22:19:00,56.1,50.7,30.01,ESE,112,0.0,0.0,82,0.00,,CLR,1.38,VWS V12.08,2013-10-08 02:19:00,
2013-10-07 22:24:00,55.9,50.5,30.01,ESE,112,0.0,0.0,82,0.00,,CLR,1.38,VWS V12.08,2013-10-08 02:24:00,
2013-10-07 22:29:00,55.9,50.5,30.01,ESE,112,0.0,0.0,82,0.00,,CLR,1.38,VWS V12.08,2013-10-08 02:29:00,
2013-10-07 22:34:00,55.6,50.2,30.01,ESE,112,0.0,0.0,82,0.00,,CLR,1.38,VWS V12.08,2013-10-08 02:34:00,
2013-10-07 22:39:00,55.6,50.2,30.01,ESE,112,0.0,0.0,82,0.00,,CLR,1.38,VWS V12.08,2013-10-08 02:39:00,
2013-10-07 22:44:00,55.2,49.8,30.01,ESE,112,0.0,0.0,82,0.00,,CLR,1.38,VWS V12.08,2013-10-08 02:44:00,
2013-10-07 22:49:00,55.2,49.8,30.01,ESE,112,0.0,0.0,82,0.00,,CLR,1.38,VWS V12.08,2013-10-08 02:49:00,
2013-10-07 22:54:00,55.2,49.8,30.01,ESE,112,0.0,0.0,82,0.00,,CLR,1.38,VWS V12.08,2013-10-08 02:54:00,
2013-10-07 22:59:00,55.2,49.8,30.01,ESE,112,0.0,0.0,82,0.00,,CLR,1.38,VWS V12.08,2013-10-08 02:59:00,
2013-10-07 23:04:00,55.2,49.8,30.01,ESE,112,0.0,0.0,82,0.00,,CLR,1.38,VWS V12.08,2013-10-08 03:04:00,
2013-10-07 23:09:00,54.9,49.8,30.01,ESE,112,0.0,0.0,83,0.00,,CLR,1.38,VWS V12.08,2013-10-08 03:09:00,
2013-10-07 23:14:00,54.7,49.6,30.01,ESE,112,0.0,0.0,83,0.00,,CLR,1.38,VWS V12.08,2013-10-08 03:14:00,
2013-10-07 23:19:00,54.5,49.5,30.02,ESE,112,0.0,0.0,83,0.00,,CLR,1.38,VWS V12.08,2013-10-08 03:19:00,
2013-10-07 23:24:00,54.5,49.5,30.02,ESE,112,0.0,0.0,83,0.00,,CLR,1.38,VWS V12.08,2013-10-08 03:24:00,
2013-10-07 23:29:00,54.5,49.5,30.02,ESE,112,0.0,0.0,83,0.00,,CLR,1.38,VWS V12.08,2013-10-08 03:29:00,
2013-10-07 23:34:00,54.5,49.5,30.02,ESE,112,0.0,0.0,83,0.00,,CLR,1.38,VWS V12.08,2013-10-08 03:34:00,
2013-10-07 23:39:00,54.5,49.5,30.02,ESE,112,0.0,0.0,83,0.00,,CLR,1.38,VWS V12.08,2013-10-08 03:39:00,
2013-10-07 23:44:00,54.5,49.5,30.02,ESE,112,0.0,0.0,83,0.00,,CLR,1.38,VWS V12.08,2013-10-08 03:44:00,
2013-10-07 23:49:00,54.3,49.3,30.02,ESE,112,0.0,0.0,83,0.00,,CLR,1.38,VWS V12.08,2013-10-08 03:49:00,
2013-10-07 23:54:00,54.1,49.1,30.02,ESE,112,0.0,0.0,83,0.00,,CLR,1.38,VWS V12.08,2013-10-08 03:54:00,
2013-10-07 23:59:00,54.0,48.9,30.02,ESE,112,0.0,0.0,83,0.00,,CLR,1.38,VWS V12.08,2013-10-08 03:59:00,